QPF
0.00 0.00 0.00 0.00 0.00 0.00 0.00 0.00 0.00 0.00 0.00 0.00 0.00 0.00 0.00 0.00 0.00 0.00 0.00 0.00 0.00 0.00 0.00 0.00 0.00 0.00 0.00 0.00 0.00 0.00 0.00 0.00 0.00 0.00 0.00 0.00 0.00 0.00 0.00 0.00 0.00 0.00 0.00 0.00 0.00
0.00 0.00 0.00 0.00 0.00 0.00 0.00 0.00 0.00 0.00 0.00 0.00 0.00 0.00 0.00 0.00 0.00 0.00 0.00 0.00 0.00 0.00 0.00 0.00 0.00 0.00 0.00 0.00 0.00 0.00 0.00 0.00 0.00 0.00 0.00 0.00 0.00 0.00 0.00 0.00 0.00 0.00 0.00 0.00 0.00
0.00 0.00 0.00 0.00 0.00 0.00 0.00 0.00 0.00 0.00 0.00 0.00 0.00 0.00 0.00 0.00 0.00 0.00 0.00 0.00 0.00 0.00 0.00 0.00 0.00 0.00 0.00 0.00 0.00 0.00 0.00 0.00 0.00 0.00 0.00 0.00 0.00 0.00 0.00 0.00 0.00 0.00 0.00 0.00 0.00
0.00 0.00 0.00 0.00 0.00 0.00 0.00 0.00 0.00 0.00 0.00 0.00 0.00 0.00 0.00 0.00 0.00 0.00 0.00 0.00 0.00 0.00 0.00 0.00 0.00 0.00 0.00 0.00 0.00 0.00 0.00 0.00 0.00 0.00 0.00 0.00 0.00 0.00 0.00 0.00 0.00 0.00 0.00 0.00 0.00
0.00 0.00 0.00 0.00 0.00 0.00 0.00 0.00 0.00 0.00 0.00 0.00 0.00 0.00 0.00 0.00 0.00 0.00 0.00 0.00 0.00 0.00 0.00 0.00 0.00 0.00 0.00 0.00 0.00 0.00 0.00 0.00 0.00 0.00 0.00 0.00 0.00 0.00 0.00 0.00 0.00 0.00 0.00 0.00 0.00
0.00 0.00 0.00 0.00 0.00 0.00 0.00 0.00 0.00 0.00 0.00 0.00 0.00 0.00 0.00 0.00 0.00 0.00 0.00 0.00 0.00 0.00 0.00 0.00 0.00 0.00 0.00 0.00 0.00 0.00 0.00 0.00 0.00 0.00 0.00 0.00 0.00 0.00 0.00 0.00 0.00 0.00 0.00 0.00 0.00
0.00 0.00 0.00 0.00 0.00 0.00 0.00 0.00 0.00 0.00 0.00 0.00 0.00 0.00 0.00 0.00 0.00 0.00 0.00 0.00 0.00 0.00 0.00 0.00 0.00 0.00 0.00 0.00 0.00 0.00 0.00 0.00 0.00 0.00 0.00 0.00 0.00 0.00 0.00 0.00 0.00 0.00 0.00 0.00 0.00
0.00 0.00 0.00 0.00 0.00 0.00 0.00 0.00 0.00 0.00 0.00 0.00 0.00 0.00 0.00 0.00 0.00 0.00 0.00 0.00 0.00 0.00 0.00 0.00 0.00 0.00 0.00 0.00 0.00 0.00 0.00 0.00 0.00 0.00 0.00 0.00 0.00 0.00 0.00 0.00 0.00 0.00 0.00 0.00 0.00
0.01 0.00 0.00 0.00 0.00 0.00 0.00 0.00 0.00 0.00 0.00 0.00 0.00 0.00 0.00 0.00 0.00 0.00 0.00 0.00 0.00 0.00 0.00 0.00 0.00 0.00 0.00 0.00 0.00 0.00 0.00 0.00 0.00 0.00 0.00 0.00 0.00 0.00 0.00 0.00 0.00 0.00 0.00 0.00 0.00
0.00 0.00 0.00 0.00 0.00 0.00 0.00 0.00 0.00 0.00 0.00 0.00 0.00 0.00 0.00 0.00 0.00 0.00 0.00 0.00 0.00 0.00 0.00 0.00 0.00 0.00 0.00 0.00 0.00 0.00 0.00 0.00 0.00 0.00 0.00 0.00 0.00 0.00 0.00 0.00 0.00 0.00 0.00 0.00 0.00
0.00 0.00 0.00 0.00 0.00 0.00 0.00 0.00 0.00 0.00 0.00 0.00 0.00 0.00 0.00 0.00 0.00 0.00 0.00 0.00 0.00 0.00 0.00 0.00 0.00 0.00 0.00 0.00 0.00 0.00 0.00 0.00 0.00 0.00 0.00 0.00 0.00 0.00 0.00 0.00 0.00 0.00 0.00 0.00 0.00
0.00 0.00 0.00 0.00 0.00 0.00 0.00 0.00 0.00 0.00 0.00 0.00 0.00 0.00 0.00 0.00 0.00 0.00 0.00 0.00 0.00 0.00 0.00 0.00 0.00 0.00 0.00 0.00 0.00 0.00 0.00 0.00 0.00 0.00 0.00 0.00 0.00 0.00 0.00 0.00 0.00 0.00 0.00 0.00 0.00
0.00 0.00 0.00 0.00 0.00 0.00 0.00 0.00 0.00 0.00 0.00 0.00 0.00 0.00 0.00 0.00 0.00 0.00 0.00 0.00 0.00 0.00 0.00 0.00 0.00 0.00 0.00 0.00 0.00 0.00 0.00 0.00 0.00 0.00 0.00 0.00 0.00 0.00 0.00 0.00 0.00 0.00 0.00 0.00 0.00
0.00 0.00 0.00 0.01 0.00 0.00 0.00 0.00 0.00 0.00 0.00 0.00 0.00 0.00 0.00 0.00 0.00 0.00 0.00 0.00 0.00 0.00 0.00 0.00 0.00 0.00 0.00 0.00 0.00 0.00 0.00 0.00 0.00 0.00 0.00 0.00 0.00 0.00 0.00 0.00 0.00 0.00 0.00 0.00 0.00
0.00 0.00 0.00 0.01 0.00 0.00 0.00 0.00 0.00 0.00 0.00 0.00 0.00 0.00 0.00 0.00 0.00 0.00 0.00 0.00 0.00 0.00 0.00 0.00 0.00 0.00 0.00 0.00 0.00 0.00 0.00 0.00 0.00 0.00 0.00 0.00 0.00 0.00 0.00 0.00 0.00 0.00 0.00 0.00 0.00
0.00 0.00 0.00 0.00 0.01 0.00 0.00 0.00 0.00 0.00 0.00 0.00 0.00 0.00 0.00 0.00 0.00 0.00 0.00 0.00 0.00 0.00 0.00 0.00 0.00 0.00 0.00 0.00 0.00 0.00 0.00 0.00 0.00 0.00 0.00 0.00 0.00 0.00 0.00 0.00 0.00 0.00 0.00 0.00 0.00
0.00 0.00 0.01 0.01 0.01 0.00 0.00 0.00 0.00 0.00 0.00 0.00 0.00 0.00 0.00 0.00 0.00 0.00 0.00 0.00 0.00 0.00 0.00 0.00 0.00 0.00 0.00 0.00 0.00 0.00 0.00 0.00 0.00 0.00 0.00 0.00 0.00 0.00 0.00 0.00 0.00 0.00 0.00 0.00 0.00
0.01 0.00 0.00 0.00 0.00 0.00 0.00 0.00 0.00 0.00 0.00 0.00 0.00 0.00 0.00 0.00 0.00 0.00 0.00 0.00 0.00 0.00 0.00 0.00 0.00 0.00 0.00 0.00 0.00 0.00 0.00 0.00 0.00 0.00 0.00 0.00 0.00 0.00 0.00 0.00 0.00 0.00 0.00 0.00 0.00
0.03 0.01 0.00 0.01 0.00 0.00 0.02 0.01 0.00 0.00 0.00 0.00 0.00 0.00 0.00 0.00 0.00 0.00 0.00 0.00 0.00 0.00 0.00 0.00 0.00 0.00 0.00 0.00 0.00 0.00 0.00 0.00 0.00 0.00 0.00 0.00 0.00 0.00 0.00 0.00 0.00 0.00 0.00 0.00 0.00
0.04 0.00 0.00 0.00 0.03 0.03 0.05 0.01 0.00 0.00 0.00 0.00 0.00 0.00 0.00 0.00 0.00 0.00 0.00 0.00 0.00 0.00 0.00 0.00 0.00 0.00 0.00 0.00 0.00 0.00 0.00 0.00 0.00 0.00 0.00 0.00 0.00 0.00 0.00 0.00 0.00 0.00 0.00 0.00 0.00
0.08 0.03 0.00 0.03 0.10 0.10 0.12 0.01 0.00 0.00 0.00 0.00 0.00 0.00 0.00 0.00 0.00 0.00 0.00 0.00 0.00 0.00 0.00 0.00 0.00 0.00 0.00 0.00 0.00 0.00 0.00 0.00 0.00 0.00 0.00 0.00 0.00 0.00 0.00 0.00 0.00 0.00 0.00 0.00 0.00
0.06 0.03 0.02 0.10 0.09 0.08 0.08 0.00 0.00 0.00 0.00 0.00 0.00 0.00 0.00 0.00 0.00 0.00 0.00 0.00 0.00 0.00 0.00 0.00 0.00 0.00 0.00 0.00 0.00 0.00 0.00 0.00 0.00 0.00 0.00 0.00 0.00 0.00 0.00 0.00 0.00 0.00 0.00 0.00 0.00
0.02 0.04 0.08 0.14 0.08 0.02 0.00 0.00 0.00 0.00 0.00 0.00 0.00 0.00 0.00 0.00 0.00 0.00 0.00 0.00 0.00 0.00 0.00 0.00 0.00 0.00 0.00 0.00 0.00 0.00 0.00 0.00 0.00 0.00 0.00 0.00 0.00 0.00 0.00 0.00 0.00 0.00 0.00 0.00 0.00
0.06 0.06 0.04 0.08 0.12 0.07 0.04 0.03 0.02 0.00 0.00 0.00 0.00 0.00 0.00 0.00 0.00 0.00 0.00 0.00 0.00 0.00 0.00 0.00 0.00 0.00 0.00 0.00 0.00 0.00 0.00 0.00 0.00 0.00 0.00 0.00 0.00 0.00 0.00 0.00 0.00 0.00 0.00 0.00 0.00
0.04 0.04 0.06 0.09 0.06 0.08 0.06 0.07 0.03 0.03 0.01 0.00 0.00 0.00 0.00 0.00 0.00 0.00 0.00 0.00 0.00 0.00 0.00 0.00 0.00 0.00 0.00 0.00 0.00 0.00 0.00 0.00 0.00 0.00 0.00 0.00 0.00 0.00 0.00 0.00 0.00 0.00 0.00 0.00 0.00
0.03 0.03 0.04 0.03 0.06 0.07 0.07 0.04 0.03 0.01 0.03 0.01 0.00 0.00 0.00 0.00 0.00 0.00 0.00 0.00 0.00 0.00 0.00 0.00 0.00 0.00 0.00 0.00 0.00 0.00 0.00 0.00 0.00 0.00 0.00 0.00 0.00 0.00 0.00 0.00 0.00 0.00 0.00 0.00 0.00
0.02 0.01 0.08 0.13 0.04 0.05 0.07 0.05 0.02 0.01 0.01 0.00 0.00 0.00 0.00 0.00 0.00 0.00 0.00 0.00 0.00 0.00 0.00 0.00 0.00 0.00 0.00 0.00 0.00 0.00 0.00 0.00 0.00 0.00 0.00 0.00 0.00 0.00 0.00 0.00 0.00 0.00 0.00 0.00 0.00
MSLP
1019.58 1019.19 1018.91 1018.56 1018.02 1017.66 1017.31 1016.97 1016.88 1016.52 1016.18 1015.89 1015.34 1015.03 1014.14 1013.76 1012.92 1012.64 1010.20 1008.63 1008.42 1009.47 1010.09 1009.23 1008.73 1008.24 1008.06 1007.22 1006.77 1006.11 1005.41 1003.81 1002.98 1002.30 1002.00 1002.25 1002.35 1002.52 1003.26 1004.01 1004.18 1004.72 1005.30 1005.97 1006.77
1019.57 1019.31 1019.00 1018.50 1017.75 1017.78 1017.60 1016.91 1016.75 1016.59 1015.98 1015.55 1015.05 1014.49 1014.05 1013.87 1012.37 1009.57 1007.87 1008.09 1008.84 1008.39 1009.39 1008.16 1007.50 1007.55 1007.10 1006.62 1005.80 1005.57 1004.55 1003.50 1002.97 1002.66 1002.68 1002.72 1002.40 1002.12 1002.59 1003.23 1003.77 1004.63 1005.48 1006.55 1007.00
1019.42 1019.05 1018.64 1018.33 1018.12 1017.85 1017.28 1016.81 1016.69 1016.19 1015.82 1015.59 1015.09 1014.50 1014.10 1013.66 1010.59 1006.78 1007.16 1007.13 1008.00 1008.69 1007.76 1007.31 1006.49 1006.45 1006.12 1005.70 1004.95 1004.60 1003.95 1003.71 1003.33 1003.31 1002.91 1002.64 1002.44 1002.03 1002.50 1002.74 1002.75 1003.46 1004.07 1005.54 1006.37
1019.06 1018.84 1018.59 1018.25 1017.82 1017.55 1017.16 1016.78 1016.57 1016.14 1015.95 1015.46 1015.16 1014.71 1013.92 1012.92 1008.75 1006.74 1007.61 1007.34 1008.17 1008.29 1007.89 1006.49 1005.98 1005.41 1005.31 1004.49 1004.09 1003.71 1003.79 1003.77 1003.57 1003.38 1002.73 1002.48 1002.27 1002.28 1002.60 1002.74 1002.98 1003.68 1004.14 1004.76 1005.72
1018.92 1018.70 1018.44 1018.12 1017.76 1017.41 1016.99 1016.63 1016.54 1016.46 1016.10 1015.59 1015.66 1015.35 1014.36 1011.04 1007.50 1006.96 1007.85 1006.88 1008.15 1008.52 1007.33 1005.87 1005.22 1004.71 1004.17 1003.88 1003.48 1003.26 1003.60 1003.71 1002.90 1002.58 1002.33 1002.27 1002.31 1002.45 1002.39 1002.40 1002.96 1003.57 1004.01 1004.46 1005.10
1018.69 1018.55 1018.44 1018.19 1017.86 1017.45 1017.00 1016.74 1016.50 1016.19 1015.73 1015.28 1015.42 1015.29 1013.61 1009.63 1006.59 1005.75 1006.30 1006.71 1006.74 1007.21 1006.44 1005.64 1004.59 1004.17 1003.75 1003.47 1003.08 1003.06 1002.79 1002.65 1002.32 1002.01 1002.15 1002.34 1002.13 1002.44 1002.40 1002.50 1003.11 1003.41 1003.66 1004.08 1004.83
1018.51 1018.28 1017.98 1017.72 1017.46 1017.07 1016.81 1016.59 1016.23 1015.88 1015.64 1015.52 1015.33 1014.45 1011.54 1007.80 1005.87 1005.17 1005.69 1005.69 1005.69 1005.76 1005.45 1005.25 1004.87 1004.28 1003.95 1003.13 1002.72 1002.43 1002.39 1002.16 1002.00 1001.78 1001.82 1002.03 1002.01 1001.55 1002.28 1002.24 1002.28 1002.77 1003.53 1003.93 1004.29
1018.08 1017.88 1017.66 1017.37 1017.01 1016.72 1016.40 1015.95 1015.59 1015.31 1014.85 1014.47 1014.42 1013.52 1009.39 1006.44 1006.05 1005.88 1005.27 1004.87 1005.03 1004.84 1004.88 1004.57 1004.93 1004.22 1003.31 1003.01 1002.56 1002.18 1001.97 1001.29 1000.64 1000.56 1001.29 1002.14 1001.18 1000.64 1001.18 1001.58 1001.92 1002.41 1002.66 1003.25 1003.93
1017.90 1017.55 1017.22 1016.96 1016.75 1016.42 1015.95 1015.40 1014.80 1014.30 1013.86 1013.73 1013.38 1011.57 1007.18 1004.69 1004.92 1004.32 1004.34 1004.16 1004.57 1004.87 1004.32 1004.25 1003.97 1003.83 1003.46 1002.71 1002.00 1001.72 1000.91 1000.33 999.82 999.65 1000.70 1001.30 1000.99 1000.50 1000.52 1000.85 1001.29 1001.68 1001.99 1002.69 1003.72
1017.69 1017.35 1017.05 1016.68 1016.31 1016.00 1015.57 1014.81 1013.54 1013.84 1013.28 1012.62 1010.90 1009.70 1005.96 1003.33 1003.05 1003.25 1003.24 1003.67 1003.87 1004.28 1004.31 1004.00 1003.51 1003.07 1002.76 1001.98 1000.36 1000.20 999.72 999.33 999.25 998.99 1000.02 1000.38 1000.27 1000.09 999.90 1000.15 1000.45 1000.61 1001.35 1002.02 1003.21
1017.48 1017.13 1016.82 1016.52 1016.15 1015.92 1015.57 1012.91 1012.13 1011.71 1010.31 1007.53 1005.92 1004.68 1002.32 1002.40 1002.60 1002.27 1002.45 1002.70 1003.40 1003.25 1002.86 1002.77 1002.17 1000.98 1000.58 1000.50 1000.39 999.75 999.16 998.62 998.43 998.70 999.26 999.66 1000.03 999.85 999.41 999.31 999.48 999.81 1000.22 1001.32 1002.59
1017.20 1016.88 1016.53 1016.18 1015.86 1015.62 1015.26 1012.51 1009.23 1010.12 1007.91 1006.31 1004.93 1003.51 1002.66 1002.26 1001.78 1001.62 1001.94 1002.27 1002.29 1001.32 1001.79 1001.38 1000.00 1000.00 1000.34 1000.24 1000.00 999.58 999.13 998.94 999.09 999.10 999.38 999.69 999.68 999.51 999.12 998.72 998.63 998.80 999.37 1000.65 1002.27
1016.83 1016.57 1016.27 1015.94 1015.50 1014.91 1013.16 1010.75 1010.04 1009.86 1007.39 1003.55 1002.33 1001.60 1001.83 1001.80 1000.88 1000.28 1000.73 1001.12 1000.84 1000.62 999.94 998.93 998.76 999.51 999.11 999.06 998.84 998.84 998.96 998.99 999.15 999.14 999.33 999.66 999.12 998.22 997.84 997.64 997.90 998.24 999.01 1000.05 1001.63
1016.40 1016.27 1016.00 1015.81 1015.39 1012.30 1010.68 1010.15 1010.43 1010.08 1006.19 1000.27 999.09 998.34 999.60 1000.59 999.32 999.90 999.34 1000.08 999.66 999.05 998.95 998.27 997.87 997.72 997.98 997.81 998.09 998.03 998.87 999.27 999.47 999.71 999.24 999.33 997.92 997.86 997.33 996.82 997.19 997.56 998.48 999.69 1001.11
1015.84 1015.82 1015.74 1015.80 1013.83 1011.68 1010.58 1010.78 1010.27 1009.83 1003.74 995.68 995.25 996.38 996.71 997.55 996.96 997.34 998.46 999.13 998.22 997.95 998.19 996.13 996.63 996.48 996.59 996.87 997.40 997.84 998.66 998.93 999.54 1000.05 999.77 999.25 998.40 997.16 996.49 996.10 996.60 996.88 997.37 998.73 1000.48
1015.26 1015.30 1015.35 1014.54 1013.65 1012.22 1011.21 1011.04 1010.51 1007.02 999.25 994.77 994.19 995.19 995.43 996.21 996.27 995.61 997.37 998.16 998.18 997.38 996.72 996.08 995.91 995.72 995.64 996.34 997.45 998.08 998.65 999.23 999.65 999.99 999.33 998.71 997.98 996.39 995.59 995.81 996.40 996.57 997.12 998.61 1000.15
1014.59 1014.72 1014.87 1013.50 1012.53 1012.10 1011.79 1010.78 1008.15 1002.01 996.55 993.60 993.31 994.06 994.04 994.45 995.63 995.23 996.10 996.60 995.88 996.02 994.93 995.11 994.46 995.02 995.14 996.10 996.85 997.70 998.53 998.80 999.35 999.02 998.01 997.32 997.03 996.25 996.04 996.05 996.32 996.53 997.17 998.61 1000.21
1013.89 1014.17 1013.74 1013.07 1012.45 1012.35 1011.78 1009.84 1004.45 998.04 995.29 992.36 992.43 993.18 992.92 993.08 994.20 994.23 994.72 995.03 995.20 994.66 993.62 993.56 993.57 993.52 994.07 995.09 995.62 996.87 997.81 997.69 997.75 997.44 996.56 996.67 996.45 995.54 995.78 996.12 996.56 997.00 997.56 998.79 1000.42
1013.38 1013.61 1012.74 1011.98 1012.06 1012.35 1012.01 1008.07 1001.98 997.71 995.64 993.93 992.44 992.01 992.22 991.79 992.20 993.06 992.84 992.91 993.13 993.17 992.33 992.20 992.08 993.21 993.89 995.00 995.42 995.93 996.93 997.69 997.72 997.35 996.90 995.93 995.51 995.37 995.78 995.82 996.08 996.84 998.06 999.22 1000.51
1012.93 1012.75 1011.77 1011.02 1011.74 1012.04 1011.50 1007.06 1002.53 1000.16 997.17 995.01 993.39 992.20 991.49 991.03 991.28 991.27 991.77 991.53 991.81 992.34 992.37 991.21 991.94 991.82 993.31 994.80 994.99 994.92 996.34 997.12 997.36 997.24 996.76 995.78 995.08 994.72 995.23 995.26 996.07 997.05 998.17 999.50 1000.63
1012.64 1011.95 1009.72 1009.99 1011.67 1012.04 1010.27 1006.62 1003.89 1001.50 999.07 998.11 995.22 993.49 991.78 990.99 990.41 989.83 989.57 989.81 990.72 991.11 991.92 991.60 991.44 991.46 992.33 993.24 993.48 994.56 994.96 995.99 996.72 996.84 996.17 995.55 994.51 994.20 994.78 995.43 996.13 996.80 998.20 999.50 1000.47
1012.43 1010.96 1008.53 1010.29 1011.75 1011.00 1009.26 1006.26 1005.33 1002.44 1000.51 999.82 998.54 996.67 993.97 991.36 989.91 989.76 988.71 988.59 989.02 989.93 990.78 990.66 991.52 991.00 991.20 992.29 993.52 993.76 994.32 995.16 995.79 996.55 996.17 995.17 994.25 994.45 995.19 995.55 996.22 996.60 998.11 999.38 1000.27
1011.38 1010.20 1010.19 1010.41 1010.42 1009.75 1007.91 1006.51 1005.72 1003.51 1001.85 1001.33 999.45 998.38 996.03 993.64 991.52 989.13 988.58 988.08 988.35 989.08 989.33 990.72 990.97 991.12 991.14 992.52 992.84 993.18 993.74 994.59 995.49 995.98 995.27 995.04 994.35 994.23 995.05 995.64 996.16 996.50 997.77 998.97 999.98
1012.12 1010.67 1010.37 1010.82 1010.59 1009.68 1008.17 1005.77 1005.04 1004.39 1002.59 1002.46 1000.46 999.61 998.23 995.43 992.70 990.03 988.40 987.90 987.81 988.67 989.31 990.78 990.55 990.57 989.59 990.29 991.76 992.85 993.10 993.86 994.83 995.00 995.24 994.39 993.72 994.07 994.71 995.13 995.56 996.37 997.44 998.44 999.54
1011.31 1010.46 1009.81 1009.74 1009.54 1009.15 1008.56 1007.03 1005.41 1003.57 1003.44 1002.37 1001.40 1000.08 998.43 995.91 993.43 991.07 988.96 988.31 988.37 988.98 989.40 990.21 990.26 990.77 990.54 990.38 991.32 991.93 992.47 992.93 993.33 994.20 994.29 994.11 993.66 993.35 993.56 994.17 994.63 995.73 996.81 997.90 998.82
1011.90 1010.96 1010.48 1009.83 1009.22 1008.35 1007.62 1006.62 1005.39 1003.95 1003.13 1002.56 1001.30 1000.38 998.88 997.25 995.44 993.10 990.96 989.55 988.42 989.04 989.01 990.13 990.31 990.76 990.66 990.56 990.32 991.07 991.73 992.19 992.52 993.07 993.62 993.78 993.13 993.01 993.08 993.61 994.03 994.87 995.98 997.04 997.99
1011.74 1011.82 1011.73 1010.25 1008.71 1008.27 1007.51 1006.19 1005.40 1004.46 1003.18 1003.54 1002.14 1000.62 999.68 998.46 998.39 996.08 994.48 992.37 990.45 988.99 989.08 989.98 990.26 990.79 990.20 990.34 990.13 989.68 989.92 990.93 991.76 992.25 992.63 992.70 993.08 992.73 992.85 993.22 993.63 994.25 995.18 996.13 997.01
Thickness
5659 5663 5668 5674 5683 5690 5696 5702 5706 5712 5716 5721 5727 5731 5740 5746 5755 5759 5769 5787 5787 5782 5779 5785 5784 5784 5785 5780 5787 5791 5758 5758 5770 5777 5783 5799 5784 5794 5788 5769 5770 5769 5762 5762 5760
5651 5653 5658 5664 5675 5680 5685 5694 5698 5702 5708 5716 5722 5728 5734 5737 5751 5769 5790 5789 5782 5785 5773 5775 5772 5775 5769 5772 5779 5769 5757 5765 5786 5786 5776 5781 5783 5789 5777 5767 5761 5759 5762 5755 5753
5647 5649 5653 5658 5663 5670 5679 5686 5689 5695 5701 5706 5713 5720 5724 5730 5751 5780 5792 5793 5784 5777 5782 5782 5785 5776 5765 5774 5776 5770 5757 5774 5778 5780 5783 5777 5778 5790 5771 5758 5770 5758 5760 5755 5749
5644 5646 5649 5652 5657 5662 5669 5675 5680 5686 5691 5697 5702 5708 5717 5727 5733 5778 5780 5783 5774 5770 5770 5776 5774 5764 5758 5761 5780 5760 5770 5772 5771 5777 5778 5771 5781 5771 5768 5766 5774 5768 5766 5759 5748
5638 5640 5643 5646 5650 5656 5662 5668 5670 5672 5679 5686 5687 5692 5704 5723 5748 5767 5765 5776 5762 5757 5760 5767 5762 5765 5755 5767 5773 5761 5762 5767 5778 5780 5780 5781 5768 5764 5766 5775 5774 5768 5762 5756 5750
5632 5634 5635 5639 5643 5649 5654 5658 5660 5664 5672 5677 5678 5679 5694 5706 5763 5770 5767 5764 5762 5757 5758 5765 5765 5775 5763 5763 5763 5769 5768 5770 5777 5778 5776 5762 5765 5758 5767 5769 5763 5760 5756 5753 5746
5625 5627 5631 5635 5638 5643 5647 5651 5655 5659 5663 5666 5669 5674 5695 5726 5761 5767 5762 5762 5765 5762 5755 5764 5767 5759 5764 5757 5777 5773 5756 5765 5768 5772 5765 5767 5750 5755 5765 5765 5763 5759 5752 5750 5749
5622 5624 5626 5628 5631 5636 5640 5645 5649 5654 5661 5667 5668 5674 5697 5747 5748 5751 5759 5760 5765 5769 5764 5770 5765 5758 5761 5770 5764 5756 5757 5741 5772 5775 5767 5755 5736 5771 5773 5763 5757 5756 5756 5750 5746
5612 5616 5619 5623 5625 5629 5634 5640 5646 5652 5658 5661 5666 5678 5704 5752 5741 5756 5758 5752 5754 5755 5763 5765 5761 5749 5753 5740 5742 5747 5733 5746 5760 5784 5764 5750 5739 5767 5776 5766 5757 5756 5756 5750 5742
5602 5606 5610 5615 5618 5622 5627 5633 5644 5644 5652 5658 5674 5674 5712 5733 5750 5752 5761 5756 5746 5743 5740 5742 5743 5734 5737 5738 5726 5738 5748 5760 5756 5781 5765 5752 5748 5766 5773 5766 5761 5761 5755 5750 5740
5588 5592 5597 5603 5608 5611 5616 5639 5649 5651 5661 5686 5698 5705 5729 5742 5749 5744 5753 5747 5740 5736 5722 5739 5728 5726 5747 5754 5755 5760 5761 5763 5777 5785 5767 5755 5746 5757 5770 5768 5763 5761 5758 5750 5741
5573 5577 5583 5589 5596 5600 5605 5627 5655 5648 5662 5685 5696 5712 5724 5735 5724 5736 5747 5726 5725 5726 5735 5731 5727 5754 5757 5754 5751 5752 5749 5751 5762 5772 5762 5749 5742 5756 5762 5766 5768 5765 5760 5750 5738
5557 5561 5566 5572 5582 5590 5605 5628 5639 5640 5649 5692 5709 5713 5719 5724 5721 5732 5741 5732 5725 5723 5733 5735 5750 5758 5754 5751 5747 5750 5743 5746 5744 5762 5761 5744 5737 5754 5768 5774 5772 5769 5764 5755 5739
5535 5539 5546 5553 5563 5593 5606 5616 5618 5624 5639 5696 5714 5728 5727 5722 5723 5741 5751 5735 5731 5728 5737 5742 5762 5756 5750 5748 5757 5739 5759 5750 5742 5733 5719 5752 5718 5745 5760 5763 5763 5763 5759 5751 5740
5511 5514 5522 5528 5552 5574 5588 5595 5603 5607 5626 5734 5734 5748 5743 5727 5746 5744 5753 5735 5729 5736 5737 5747 5750 5753 5746 5754 5763 5748 5759 5750 5740 5725 5725 5730 5722 5744 5767 5760 5757 5763 5764 5756 5744
5480 5487 5494 5508 5523 5540 5560 5569 5576 5597 5638 5709 5724 5721 5724 5729 5734 5752 5736 5742 5743 5737 5747 5751 5770 5765 5764 5768 5760 5761 5745 5740 5735 5724 5700 5726 5729 5742 5762 5759 5757 5765 5765 5754 5743
5456 5458 5466 5483 5500 5511 5527 5539 5561 5605 5700 5703 5705 5714 5724 5723 5720 5732 5722 5718 5722 5711 5725 5744 5755 5767 5772 5749 5758 5746 5727 5703 5692 5702 5704 5750 5733 5742 5759 5763 5762 5761 5760 5753 5741
5439 5440 5447 5459 5470 5481 5494 5515 5555 5654 5682 5725 5709 5704 5709 5726 5717 5724 5718 5714 5731 5736 5739 5730 5723 5758 5772 5755 5746 5737 5731 5715 5688 5708 5734 5750 5721 5748 5765 5765 5765 5762 5759 5749 5735
5428 5427 5436 5449 5453 5455 5460 5501 5576 5650 5677 5685 5700 5690 5695 5721 5724 5717 5721 5726 5739 5747 5737 5737 5742 5769 5764 5762 5758 5740 5721 5745 5722 5734 5724 5746 5756 5764 5761 5759 5761 5755 5748 5739 5731
5419 5419 5431 5440 5439 5439 5434 5490 5570 5609 5641 5663 5666 5691 5685 5709 5709 5716 5715 5739 5738 5749 5762 5761 5732 5768 5761 5755 5756 5752 5752 5716 5723 5690 5690 5731 5738 5741 5747 5756 5754 5746 5740 5734 5728
5410 5411 5438 5436 5425 5417 5428 5493 5536 5572 5598 5600 5630 5659 5694 5702 5712 5717 5727 5744 5747 5748 5753 5757 5749 5751 5759 5735 5741 5740 5735 5734 5733 5727 5710 5709 5737 5767 5758 5755 5749 5747 5741 5732 5726
5403 5414 5438 5424 5410 5410 5434 5490 5504 5539 5567 5564 5584 5606 5644 5699 5713 5707 5719 5738 5757 5754 5734 5759 5738 5737 5742 5761 5761 5754 5741 5741 5715 5705 5725 5737 5745 5769 5760 5757 5753 5751 5740 5734 5728
5412 5424 5420 5417 5419 5427 5458 5471 5473 5502 5523 5536 5563 5584 5616 5644 5667 5713 5720 5751 5752 5744 5741 5747 5726 5717 5733 5735 5746 5735 5744 5743 5737 5731 5722 5716 5729 5772 5758 5753 5751 5750 5741 5734 5728
5392 5406 5411 5405 5402 5418 5440 5470 5469 5482 5508 5513 5542 5565 5580 5614 5657 5683 5713 5737 5750 5740 5746 5741 5732 5725 5726 5738 5743 5725 5737 5742 5731 5714 5716 5730 5747 5749 5749 5747 5751 5747 5742 5737 5729
5401 5404 5413 5408 5412 5419 5424 5443 5460 5483 5489 5509 5519 5542 5574 5609 5649 5674 5710 5724 5727 5723 5734 5729 5712 5726 5743 5755 5741 5736 5734 5740 5732 5730 5717 5733 5739 5757 5762 5759 5761 5753 5745 5737 5732
5385 5400 5402 5405 5411 5422 5431 5444 5456 5470 5483 5491 5508 5533 5558 5582 5625 5652 5688 5702 5706 5713 5720 5723 5709 5720 5720 5741 5747 5729 5736 5738 5740 5739 5733 5735 5741 5770 5773 5772 5767 5758 5747 5740 5735
5388 5386 5385 5393 5417 5417 5421 5443 5452 5462 5477 5473 5493 5522 5539 5561 5564 5601 5624 5654 5681 5699 5702 5703 5709 5701 5699 5727 5735 5724 5739 5741 5740 5744 5741 5725 5744 5766 5761 5761 5762 5759 5751 5746 5743